Starlink 5997

operational
NORAD ID: 56327 Int'l Des: 2023-058 Owner: SPXS Country: US Constellation: starlink
LEOCIRCULARRETROGRADESSO

About Starlink 5997

Description loading...

Live Position

Loading 3D Globe...

Upcoming Passes

Altitude History

Altitude vs Time

uPlot chart will show altitude changes over time

Two-Line Element Set

1 56327U 23058L 25303.01645682 -.00000069 00000-0 -79074-6 0 9996
2 56327 97.6031 302.2617 0003085 70.3009 289.8548 15.01257775138520
Epoch: Oct 30, 2025 • Age: 28 hours

Current Status

Altitude 566.5 km
Velocity 7.58 km/s
Sub-Earth Point 2.55°N, 18.37°E
Launch Date Apr 27, 2023
Age 2.5 years
Type internet

Technical Details

Classification Payload
Mass 300.00 kg
Dry Mass 260.00 kg
Total Mass 300.00 kg
Length 0.20 m
Diameter 2.80 m
Span 9.00 m
Shape Box + pan
Manufacturer SPXS
Bus Type Starlink
Phase Status In Orbit
Owner/State SPXS/US

Large Constellations

Loading constellations...